Погода в Печоре

Погода в Печоре : погода сейчас, прогноз погоды и архив. Всё, что Вы хотите узнать о погоде в Печоре!

Хотите узнать прогноз погоды в Печоре? Тогда Вам сюда: Погода в Печоре

Поиск расширенной информации на нашем сайте:

Другие новости

Новости СМИ2

Главная страница сайта

Новости сайта

03.07.2017

Напоминаем, что на нашем специализированном сайте Метеоцентр.Азия вы можете получить высокодетализированные автоматические прогнозы погоды по пунктам России, СНГ и мира в авиационном формате (включающие направление и скорость ветра, видимость, явления погоды, количество и форму облачности, нижнюю и верхнюю границу облачности).

Рекомендуем: Подробное описание наружная реклама у нас.

Погода в Печоре - сегодня

Время (UTC), дата Ветер
(°,м/с) 
Видим.   Явления Облачность Т
(°С)
Тd
(°С)
f(%) Тe
(°С)
Pmin
(гПа)
dP
(гПа)
Po
(мм)
O2
(г/м3)
Тmin Tmax R s Состояние
почвы
09 20.07.17 240 (ЮЗ) 1{20}  15000 м  гроза без осадков{ливн. осадки}  9/6 960 м кучево-дожд., средняя 
[Cb cap|Ac trans]
+17.4 +16.6 95 +30  1012.6  0.5  754  282           
12 20.07.17 240 (ЮЗ) 6{10}  15000 м  {гроза, ливн. осадки}  8/5 900 м средняя 
[Cu med, cong|Ac trans]
+25.1 +16.9 60 +37  1012.3  -0.2  754  275           
15 20.07.17 030 (СВ) 15000 м  гроза без осадков{ливн. осадки}  9/6 900 м кучево-дожд., верхняя 
[Cb cap|Ci fib]
+17.7 +16.4 92 +30  1012.9  0.5  755  282    +26.7  10     
18 20.07.17 160 (Ю) 15000 м  {гроза, ливн. осадки}  9/3 1000 м средняя, верхняя 
[Cu hum|Ac trans|Ci fib]
+19.3 +15.6 79 +30  1013.2  0.3  755  281           
21 20.07.17 160 (Ю) 15000 м    3/0 средняя 
[Ac cast]
+17.1 +15.4 90 +27  1013.6  0.4  755  283           
00 21.07.17 120 (ЮВ) 8000 м  дымка  3/0 средняя 
[Ac trans]
+15 +14.7 98 +24  1014.9  1.2  756  286           
03 21.07.17 140 (ЮВ) 15000 м    6/0 средняя, верхняя 
[Ac trans|Ci fib]
+19.5 +16.7 84 +33  1015.1  0.3  756  281  +14.9        мокрая 
06 21.07.17 110 (В) 15000 м    9/3 1000 м верхняя 
[Cu med, cong|Ci fib]
+23.7 +16 62 +34  1015.2  0.2  756  277           
09 21.07.17 150 (ЮВ) 15000 м    9/3 1000 м кучево-дожд., средняя 
[Cb cap|Ac trans]
+23.5 +16.7 66 +35  1015  -0.2  756  277           
12 21.07.17 340 (С) 15000 м    6/3 1000 м кучево-дожд., верхняя 
[Cb cap|Ci sp]
+23.3 +15.5 62 +33  1015.1  0.1  756  278           
15 21.07.17 070 (В) 15000 м    9/6 1200 м кучево-дожд., верхняя 
[Cb cap|Ci sp]
+22.8 +14.7 60 +31  1014.8  -0.3  756  278    +24.6       
18 21.07.17 120 (ЮВ) 15000 м    6/0 средняя, верхняя 
[Ac trans|Ci fib]
+18.5 +15.5 83 +29  1014.9  756  282           
21 21.07.17 350 (С) 15000 м    4/0 средняя, верхняя 
[Ac trans|Ci fib]
+14.8 +13.9 94 +22  1015  756  286           
00 22.07.17 340 (С) 6000 м  дымка  4/0 верхняя 
[Ci fib]
+12.8 +11.9 94 +18  1014.7  -0.3  756  289           
03 22.07.17 тихо ()   15000 м    1/0 верхняя 
[Ci fib]
+19.8 +14.9 73 +28  1014.3  -0.3  756  281  +12.7        влажная 
06 22.07.17 340 (С) 15000 м    6/3 1000 м средняя 
[Cu med, cong|Ac trans]
+25 +14.7 53 +33  1014  -0.2  755  276           
09 22.07.17 020 (С) 4{11}  15000 м  гроза без осадков  6/6 1140 м кучево-дожд. 
[Cb cap]
+28.7 +14.5 42 +36  1012.9  -1  755  272           
12 22.07.17 030 (СВ) 5{11}  15000 м  {гроза}  6/3 1000 м кучево-дожд., средняя 
[Cb cap|Ac trans]
+28.2 +14.7 44 +36  1011.9  -1  754  272           
15 22.07.17 020 (С) 15000 м  {гроза, ливн. осадки}  8/3 1000 м кучево-дожд., верхняя 
[Cb cap|Ci fib]
+27.2 +16.6 52 +39  1011.1  -0.7  753  273    +29.5     
18 22.07.17 120 (ЮВ) 15000 м  {гроза, ливн. осадки}  8/3 1000 м кучево-дожд., средняя 
[Cb cap|Ac trans]
+19.4 +15.7 79 +31  1012.8  1.4  754  280           
21 22.07.17 тихо ()   7000 м  дымка  10/0 средняя, верхняя 
[Ac trans|Cs]
+15.4 +14.5 94 +23  1012.4  -0.5  754  285           
00 23.07.17 360 (С) 7000 м  дымка  10/0 средняя, верхняя 
[Ac trans|Cs]
+15 +13.6 91 +22  1012.5  0.1  754  285           
03 23.07.17 300 (СЗ) 15000 м    8/0 средняя, верхняя 
[Ac trans|Ci fib]
+19.5 +15.5 78 +30  1012.4  754  280  +13.6    0.8    влажная 
06 23.07.17 тихо ()   15000 м    9/3 600 м кучево-дожд., средняя, верхняя 
[Cb cap|Ac trans|Ci fib]
+21 +15.5 71 +30  1012.4  0.1  754  279           
09 23.07.17 110 (В) 15000 м    3/0 средняя, верхняя 
[Ac trans|Ci fib]
+26.2 +14.8 49 +34  1011.8  -0.5  754  274           
Время (UTC), дата Ветер
(°,м/с) 
Видим.   Явления Облачность Т
(°С)
Тd
(°С)
f(%) Тe
(°С)
Pmin
(гПа)
dP
(гПа)
Po
(мм)
O2
(г/м3)
Тmin Tmax R s Состояние
почвы

Для получения пояснительной информации подведите курсор к названию столбца.

ПОГОДА в Печоре - архив

Всё, что Вы хотите узнать о погоде в Печоре - удобно и подробно!

Выберите нужную дату (начиная с 1 января 2015* года) и нажмите кнопку "Найти".
Будут отображены архивные сводки погоды по пункту Печора, начиная с указанной даты.


Отображать данные в формате CSV (для использования в таблицах Excel)


Внимание! Наш архив погоды предназначен исключительно для личного некоммерческого использования в познавательных целях. Если Вам необходимы официальные справки о состоянии погоды (для производственных, юридических, коммерческих и т.п. целей), обращайтесь в органы Росгидромета.

*Примечание: данная дата относится к архиву по метеостанциям СССР (Россия, СНГ, Балтия).
Архив по метеостанциям Зарубежной Европы и Азии (кроме Китая) хранится 10 дней, по другим регионам земного шара (Китай, Африка, Америка, Австралия, Океания) - 1 день.

Печора - район местоположения метеостанции


Название, широта, долгота, высота метеостанции:
Печора 65.1°ш. 57.1°д. 59 м над ур. моря [Российская Федерация]

Дополнительная информация

В oтличие oт бoльшинства пoгoдных сайтoв мы публикуем пoдрoбную метеoинфoрмацию в детальнoм прoфессиoнальнoм фoрмате.

Характеристики температуры и влажнoсти вoздуха измеряются на высoте 2 м в тени вдали oт зданий и деревьев.
Скoрoсть ветра измеряется на высoте 10 м (на урoвне рoста челoвека скoрoсть ветра ниже в 1.5-2 раза). Если метеoстанция нахoдится в гoрoде или в лесу, тo скoрoсть ветра занижена на 2-4 м/с пo сравнению с oткрытым местoм. Скoрoсть ветра над акватoриями крупных рек и oзёр, а также на вершинах хoлмoв на 2-5 м/с выше, чем в oбычных услoвиях.
Атмoсфернoе давление в разных тoчках местнoсти мoжет значительнo oтличаться oт давления на метеoстанции, в зависимoсти oт услoвий рельефа (при пoдъёме на 10 м давление пoнижается примернo на 1 мм рт.ст.).